{"data":{"norad_id":59650,"intl_designator":"2024-082V","name":"STARLINK-31787","alt_names":[],"object_type":"PAYLOAD","status":"ACTIVE","operator":null,"country":"US","launch_date":"2024-05-03","launch_site_code":"AFETR","launch_vehicle":null,"mission":null,"orbit_class":"UNKNOWN","rcs_meters":null,"size_class":null,"mass_kg":null,"dimensions":null,"purposes":["comms"],"wikipedia_slug":null,"has_3d_model":false,"image_url":null,"decayed_at":null,"tle_current":{"epoch":"2026-09-20T22:40:52.997376Z","epoch_age_seconds":129788,"freshness":"FRESH","line1":"1 59650U 24082V   26263.94505784  .00001239  00000+0  54540-4 0  9998","line2":"2 59650  43.0028 117.1087 0001364 266.5199  93.5497 15.27576294134879","mean_motion":15.27576294,"eccentricity":0.0001364,"inclination_deg":43.0028,"raan_deg":117.1087,"arg_perigee_deg":266.5199,"mean_anomaly_deg":93.5497,"bstar":5.454e-5,"rev_number":13487,"period_min":94.26697741095,"perigee_km":482.12432586217,"apogee_km":483.99606045646,"semimajor_km":6861.1971931593,"source":"CELESTRAK","updated_at":"2026-09-22T09:00:49.022927Z"}}}